Meteo Giornale » Osservazioni meteo Italia » Treviso-S Angelo

ore: 05:20 - Osservazioni Meteo Treviso-S Angelo
Lat. 45° 39' N Lon. 12° 11' E Alt. 18 metri s.l.m.

foschia Europe/Rome

23 °C

Foschia

Temp. 24 Ore

21 °C

30 °C

Nord-Est

9.3 Km/h

Dew point 22 °C

Umidità 94 %

Visibilità  5 Km

Il sole sorge alle ore 06:13

Il sole tramonta alle ore 20:16

Data e Ora Cielo e Fenomeni T °C DP °C Um. % Pres. hPa Vis. km Vento km/h
Oggi h: 05:20 foschia Foschia 23 22 94 1010 5 NE 9.3
Oggi h: 04:50 foschia Foschia 23 22 94 1011 5 N/NE 7.4
Oggi h: 04:20 foschia Foschia 23 22 94 1011 5 N/NE 9.3
Oggi h: 03:50 poco_nuvoloso Poco Nuvoloso 23 22 94 1012 6 NE 9.3
Oggi h: 03:20 nuvoloso Nuvoloso 22 22 100 1012 7 N 5.5
Oggi h: 02:50 sereno Sereno 22 22 100 1011 7 N 3.7
Oggi h: 02:20 sereno Sereno 23 22 94 1012 7 N 1.8
Oggi h: 01:50 poco_nuvoloso Poco Nuvoloso 23 22 94 1012 7 N 1.8
Oggi h: 01:20 molto_nuvoloso Molto Nuvoloso 23 22 94 1012 10 N 3.7
Oggi h: 00:50 poco_nuvoloso Poco Nuvoloso 23 22 94 1012 10 N 3.7
Oggi h: 00:20 sereno Sereno 23 22 94 1012 10 N 3.7
Ieri h: 23:50 sereno Sereno 23 22 94 1012 10 N 7.4
Ieri h: 23:20 poco_nuvoloso Poco Nuvoloso 23 22 94 1013 10 N 1.8
Ieri h: 22:50 nuvoloso Nuvoloso 23 21 88 1013 10 N 1.8
Ieri h: 22:20 coperto_pioggia Pioggia Debole 23 22 94 1013 10 N 3.7
Ieri h: 21:50 coperto_pioggia Pioggia Debole 23 21 88 1012 10 N 5.5
Ieri h: 21:20 coperto_pioggia Pioggia Debole 24 21 83 1014 10 SO 20.3
Ieri h: 20:50 molto_nuvoloso Molto Nuvoloso 26 22 78 1013 10 SO 7.4
Ieri h: 20:20 poco_nuvoloso Poco Nuvoloso 27 21 69 1011 10 N 5.5
Ieri h: 19:50 poco_nuvoloso Poco Nuvoloso 27 21 69 1010 10 S/SE 7.4
Ieri h: 19:20 poco_nuvoloso Poco Nuvoloso 28 21 65 1011 10 S/SE 9.3
Ieri h: 18:50 poco_nuvoloso Poco Nuvoloso 28 21 65 1011 10 SE 9.3
Ieri h: 18:20 poco_nuvoloso Poco Nuvoloso 29 21 62 1011 10 SE 11.1
Ieri h: 17:50 poco_nuvoloso Poco Nuvoloso 29 21 62 1011 10 E/SE 11.1
Ieri h: 17:20 poco_nuvoloso Poco Nuvoloso 29 22 66 1012 10 S/SE 9.3
Ieri h: 16:50 nuvoloso Nuvoloso 30 21 58 1012 10 S/SE 11.1
Ieri h: 16:20 nuvoloso Nuvoloso 29 22 66 1012 10 S 9.3
Ieri h: 15:50 nuvoloso Nuvoloso 30 21 58 1012 10 SE 11.1
Ieri h: 15:20 nuvoloso Nuvoloso 30 21 58 1012 10 S 7.4
Ieri h: 14:50 poco_nuvoloso Poco Nuvoloso 30 21 58 1012 10 SE 11.1
Ieri h: 14:20 poco_nuvoloso Poco Nuvoloso 30 21 58 1013 10 N 9.3
Ieri h: 13:50 poco_nuvoloso Poco Nuvoloso 30 21 58 1013 10 S/SE 7.4
Ieri h: 13:20 poco_nuvoloso Poco Nuvoloso 30 20 55 1013 10 N 3.7
Ieri h: 12:50 poco_nuvoloso Poco Nuvoloso 29 21 62 1013 10 N 5.5
Ieri h: 12:20 poco_nuvoloso Poco Nuvoloso 29 20 58 1013 10 N 7.4
Ieri h: 11:50 poco_nuvoloso Poco Nuvoloso 28 20 61 1013 10 N 5.5
Ieri h: 11:20 poco_nuvoloso Poco Nuvoloso 28 21 65 1013 10 N 3.7
Ieri h: 10:50 poco_nuvoloso Poco Nuvoloso 27 21 69 1013 10 N 3.7
Ieri h: 10:20 poco_nuvoloso Poco Nuvoloso 26 22 78 1013 10 N 5.5
Ieri h: 09:50 sereno Sereno 26 21 73 1013 10 N 5.5
Ieri h: 09:20 sereno Sereno 25 20 73 1013 10 N 5.5
Ieri h: 08:50 sereno Sereno 24 20 78 1013 10 NE 7.4
Ieri h: 08:20 sereno Sereno 23 19 78 1013 10 N/NE 7.4
Ieri h: 07:50 sereno Sereno 22 19 83 1013 10 NE 7.4
Ieri h: 07:20 sereno Sereno 22 19 83 1013 10 N 5.5
Ieri h: 06:50 sereno Sereno 21 18 82 1012 10 N 5.5
Ieri h: 06:20 sereno Sereno 21 19 88 1012 10 N 5.5